W7YP Weather Reports


time (UTC)temp
C
wind
direction
speed
KPH
gust
KPH
rain 1hr
cm
rain 24hr
cm
rain mn
cm
humidity
%
barometer
mb
20260504050615 10 315 0.0 0.0 0.00 0.00 0.00 76 1011.1
20260504050340 10 315 0.0 3.2 0.00 0.00 0.00 76 1010.9
20260504045616 10 315 0.0 3.2 0.00 0.00 0.00 74 1010.9
20260504045111 10 315 0.0 0.0 0.00 0.00 0.00 74 1010.8
20260504044824 10 315 0.0 0.0 0.00 0.00 0.00 73 1010.7
20260504044056 10 315 0.0 0.0 0.00 0.00 0.00 74 1010.7
20260504043557 10 315 0.0 0.0 0.00 0.00 0.00 75 1010.7
20260504043055 10 315 0.0 1.6 0.00 0.00 0.00 74 1010.8
20260504042557 11 315 0.0 1.6 0.00 0.00 0.00 74 1010.8
20260504042052 11 315 0.0 3.2 0.00 0.00 0.00 74 1010.9
20260504041542 11 315 0.0 3.2 0.00 0.00 0.00 71 1010.7
20260504041042 11 315 0.0 0.0 0.00 0.00 0.00 70 1010.8
20260504040544 11 315 0.0 3.2 0.00 0.00 0.00 72 1010.6
20260504040041 11 315 0.0 3.2 0.00 0.00 0.00 71 1010.6
20260504035805 11 315 0.0 0.0 0.00 0.00 0.00 70 1010.6
20260504035043 12 315 0.0 3.2 0.00 0.00 0.00 70 1010.6
20260504034752 12 315 0.0 3.2 0.00 0.00 0.00 69 1010.6
20260504034030 12 315 0.0 1.6 0.00 0.00 0.00 68 1010.6
20260504033738 12 315 0.0 1.6 0.00 0.00 0.00 68 1010.6
20260504033005 12 315 0.0 1.6 0.00 0.00 0.00 67 1010.5
20260504032455 12 315 0.0 1.6 0.00 0.00 0.00 67 1010.5
20260504032203 13 315 0.0 4.8 0.00 0.00 0.00 67 1010.3
20260504031443 13 315 0.0 4.8 0.00 0.00 0.00 66 1010.3
20260504030937 13 315 0.0 4.8 0.00 0.00 0.00 67 1010.3
20260504030441 13 315 0.0 3.2 0.00 0.00 0.00 65 1010.2
20260504025931 13 315 0.0 3.2 0.00 0.00 0.00 63 1010.2
20260504025423 13 317 0.0 3.2 0.00 0.00 0.00 66 1010.2
20260504024923 14 317 0.0 1.6 0.00 0.00 0.00 64 1010.2
20260504024647 14 317 0.0 3.2 0.00 0.00 0.00 63 1010.2
20260504024126 14 317 0.0 3.2 0.00 0.00 0.00 65 1010.2
20260504023404 15 317 0.0 3.2 0.00 0.00 0.00 62 1010.1
20260504022904 15 317 0.0 1.6 0.00 0.00 0.00 60 1010.1
20260504022404 15 317 0.0 0.0 0.00 0.00 0.00 60 1010.2
20260504021904 16 317 0.0 3.2 0.00 0.00 0.00 58 1010.2
20260504021359 17 317 0.0 3.2 0.00 0.00 0.00 55 1010.2
20260504020845 17 317 0.0 0.0 0.00 0.00 0.00 53 1010.1
20260504020342 18 317 0.0 0.0 0.00 0.00 0.00 51 1010.2
20260504020104 18 317 0.0 0.0 0.00 0.00 0.00 50 1010.2
20260504015335 18 317 0.0 0.0 0.00 0.00 0.00 48 1010.1
20260504015057 19 317 0.0 0.0 0.00 0.00 0.00 47 1010.1
20260504014335 19 317 0.0 0.0 0.00 0.00 0.00 45 1010.2
20260504013831 19 317 0.0 1.6 0.00 0.00 0.00 45 1010.3
20260504013323 20 317 0.0 1.6 0.00 0.00 0.00 45 1010.2
20260504012820 20 306 0.0 1.6 0.00 0.00 0.00 44 1010.2
20260504012311 20 343 0.0 0.0 0.00 0.00 0.00 40 1010.2
20260504012029 20 343 0.0 1.6 0.00 0.00 0.00 42 1010.2
20260504011532 20 343 0.0 3.2 0.00 0.00 0.00 41 1010.2
20260504010801 21 342 0.0 6.4 0.00 0.00 0.00 39 1010.1
20260504010301 21 16 0.0 9.7 0.00 0.00 0.00 36 1010.2
20260504005801 21 333 3.2 9.7 0.00 0.00 0.00 35 1010.2
20260504005304 21 263 0.0 9.7 0.00 0.00 0.00 35 1010.2
20260504004752 21 355 1.6 8.0 0.00 0.00 0.00 34 1010.3
20260504004509 22 345 1.6 6.4 0.00 0.00 0.00 33 1010.6
20260504003746 22 28 0.0 4.8 0.00 0.00 0.00 34 1010.7
20260504003242 22 275 0.0 12.9 0.00 0.00 0.00 32 1010.6
20260504002741 22 319 3.2 12.9 0.00 0.00 0.00 32 1010.7
20260504002509 22 236 0.0 19.3 0.00 0.00 0.00 32 1010.8
20260504001737 22 196 3.2 19.3 0.00 0.00 0.00 32 1010.9
20260504001237 22 194 1.6 11.3 0.00 0.00 0.00 33 1010.8
20260504000958 22 207 0.0 8.0 0.00 0.00 0.00 32 1010.9
20260504000223 22 206 1.6 8.0 0.00 0.00 0.00 31 1011.1
20260503235723 22 199 0.0 8.0 0.00 0.00 0.00 33 1011.1
20260503235445 22 269 1.6 6.4 0.00 0.00 0.00 32 1011.2
20260503234718 22 190 0.0 6.4 0.00 0.00 0.00 33 1011.1
20260503234218 22 288 0.0 9.7 0.00 0.00 0.00 32 1011.2
20260503233716 22 340 1.6 9.7 0.00 0.00 0.00 32 1011.2
20260503233431 22 198 0.0 9.7 0.00 0.00 0.00 32 1011.4
20260503232704 22 236 3.2 9.7 0.00 0.00 0.00 32 1011.5
20260503232149 22 21 1.6 9.7 0.00 0.00 0.00 33 1011.6
20260503231649 22 334 0.0 8.0 0.00 0.00 0.00 34 1011.7
20260503231151 22 348 0.0 11.3 0.00 0.00 0.00 33 1011.7
20260503230911 22 157 1.6 11.3 0.00 0.00 0.00 34 1011.6
20260503230149 22 300 1.6 16.1 0.00 0.00 0.00 34 1011.7
20260503225644 21 137 4.8 16.1 0.00 0.00 0.00 34 1011.7
20260503225140 22 189 4.8 14.5 0.00 0.00 0.00 34 1011.8
20260503224640 22 183 0.0 14.5 0.00 0.00 0.00 34 1011.8
20260503224140 22 355 3.2 11.3 0.00 0.00 0.00 34 1011.8
20260503223640 22 295 3.2 11.3 0.00 0.00 0.00 35 1011.8
20260503223140 22 340 1.6 12.9 0.00 0.00 0.00 34 1011.9
20260503222631 22 275 3.2 12.9 0.00 0.00 0.00 34 1011.9
20260503222126 22 346 1.6 17.7 0.00 0.00 0.00 34 1012.0
20260503221843 22 153 0.0 17.7 0.00 0.00 0.00 34 1012.1
20260503221116 22 110 0.0 14.5 0.00 0.00 0.00 34 1012.2
20260503220616 22 203 1.6 14.5 0.00 0.00 0.00 35 1012.5
20260503220116 22 178 1.6 14.5 0.00 0.00 0.00 35 1012.6
20260503215616 22 126 0.0 9.7 0.00 0.00 0.00 34 1012.6
20260503215604 22 306 0.0 8.0 0.00 0.00 0.00 34 1012.7
20260503214602 22 313 0.0 12.9 0.00 0.00 0.00 34 1012.8
20260503214056 22 300 3.2 12.9 0.00 0.00 0.00 34 1012.9
20260503213556 22 329 0.0 9.7 0.00 0.00 0.00 34 1013.0
20260503213100 22 227 1.6 12.9 0.00 0.00 0.00 35 1013.0
20260503212538 22 322 0.0 8.0 0.00 0.00 0.00 34 1013.1
20260503212037 21 178 0.0 19.3 0.00 0.00 0.00 34 1013.3
20260503211537 21 219 3.2 19.3 0.00 0.00 0.00 33 1013.3
20260503211037 21 141 0.0 14.5 0.00 0.00 0.00 35 1013.4
20260503211019 21 61 3.2 12.9 0.00 0.00 0.00 34 1013.4
20260503210032 21 146 6.4 12.9 0.00 0.00 0.00 35 1013.4
20260503205754 21 189 3.2 16.1 0.00 0.00 0.00 34 1013.5
20260503205304 21 180 4.8 16.1 0.00 0.00 0.00 34 1013.5
20260503204533 21 149 3.2 9.7 0.00 0.00 0.00 34 1013.6
20260503204031 21 26 3.2 12.9 0.00 0.00 0.00 35 1013.7
20260503203753 21 237 4.8 12.9 0.00 0.00 0.00 34 1013.7
20260503203025 21 318 0.0 8.0 0.00 0.00 0.00 37 1013.7
20260503202523 21 40 0.0 19.3 0.00 0.00 0.00 33 1013.8
20260503202019 21 325 3.2 20.9 0.00 0.00 0.00 35 1013.8
20260503201519 21 21 4.8 20.9 0.00 0.00 0.00 34 1013.8
20260503201510 21 342 1.6 20.9 0.00 0.00 0.00 34 1013.9
20260503200519 21 192 3.2 20.9 0.00 0.00 0.00 33 1013.9
20260503200022 21 316 1.6 9.7 0.00 0.00 0.00 35 1014.0
20260503195518 21 336 0.0 16.1 0.00 0.00 0.00 33 1014.1
20260503195015 21 155 4.8 16.1 0.00 0.00 0.00 33 1014.3
20260503194510 21 172 1.6 9.7 0.00 0.00 0.00 35 1014.4
20260503194009 20 331 0.0 14.5 0.00 0.00 0.00 34 1014.6
20260503193737 20 349 3.2 14.5 0.00 0.00 0.00 34 1014.6
20260503193010 20 285 1.6 12.9 0.00 0.00 0.00 34 1014.6
20260503192510 20 333 1.6 14.5 0.00 0.00 0.00 34 1014.7
20260503192006 20 213 3.2 14.5 0.00 0.00 0.00 34 1014.8
20260503191502 20 0 1.6 9.7 0.00 0.00 0.00 37 1014.7
20260503191001 20 180 1.6 11.3 0.00 0.00 0.00 35 1014.9
20260503190501 20 300 3.2 11.3 0.00 0.00 0.00 35 1014.9
20260503190001 20 86 1.6 11.3 0.00 0.00 0.00 36 1014.9
20260503185500 20 286 1.6 9.7 0.00 0.00 0.00 35 1015.0
20260503185004 20 198 0.0 14.5 0.00 0.00 0.00 36 1015.1
20260503184503 19 170 4.8 14.5 0.00 0.00 0.00 35 1015.3
20260503183957 19 152 1.6 16.1 0.00 0.00 0.00 36 1015.1
20260503183715 19 327 1.6 16.1 0.00 0.00 0.00 35 1015.1
20260503182952 19 5 6.4 16.1 0.00 0.00 0.00 33 1015.4
20260503182454 18 86 1.6 12.9 0.00 0.00 0.00 35 1015.4
20260503181952 18 101 1.6 8.0 0.00 0.00 0.00 37 1015.5
20260503181452 18 200 1.6 12.9 0.00 0.00 0.00 37 1015.6
20260503180947 18 144 0.0 12.9 0.00 0.00 0.00 38 1015.6
20260503180447 17 165 1.6 4.8 0.00 0.00 0.00 39 1015.7
20260503175948 17 321 0.0 8.0 0.00 0.00 0.00 43 1015.7
20260503175448 17 317 1.6 8.0 0.00 0.00 0.00 47 1015.8
20260503174949 16 130 0.0 6.4 0.00 0.00 0.00 43 1015.9
20260503174711 16 119 1.6 6.4 0.00 0.00 0.00 49 1015.8
20260503173946 16 97 0.0 6.4 0.00 0.00 0.00 51 1015.9
20260503173447 16 98 1.6 6.4 0.00 0.00 0.00 52 1015.8
20260503172944 16 94 1.6 6.4 0.00 0.00 0.00 52 1015.9
20260503172444 16 67 0.0 4.8 0.00 0.00 0.00 52 1016.0
20260503171944 15 65 1.6 6.4 0.00 0.00 0.00 53 1016.2
20260503171444 15 102 1.6 6.4 0.00 0.00 0.00 53 1016.2
20260503171206 15 125 0.0 6.4 0.00 0.00 0.00 56 1016.2
20260503170709 15 76 0.0 11.3 0.00 0.00 0.00 56 1016.2
20260503160145 12 83 1.6 4.8 0.00 0.00 0.00 62 1016.7
20260503150904 10 121 0.0 3.2 0.00 0.00 0.00 69 1017.6
20260503150628 10 121 0.0 1.6 0.00 0.00 0.00 69 1017.7
20260503150126 9 121 0.0 4.8 0.00 0.00 0.00 69 1017.8
20260503131322 3 298 0.0 0.0 0.00 0.00 0.00 94 1017.8
20260503130822 3 298 0.0 0.0 0.00 0.00 0.00 94 1017.7
20260503130325 2 298 0.0 3.2 0.00 0.00 0.00 94 1017.6
20260503110703 3 298 0.0 0.0 0.00 0.00 0.00 91 1017.5
20260503110201 3 298 0.0 0.0 0.00 0.00 0.00 91 1017.5
20260503100112 4 298 0.0 0.0 0.00 0.00 0.00 90 1017.4
20260503081530 6 298 0.0 0.0 0.00 0.00 0.00 87 1017.4
20260503081249 6 298 0.0 0.0 0.00 0.00 0.00 86 1017.4
20260503080531 6 298 0.0 0.0 0.00 0.00 0.00 86 1017.3
20260503072726 6 298 0.0 0.0 0.00 0.00 0.00 84 1017.3
20260503071958 6 298 0.0 0.0 0.00 0.00 0.00 83 1017.3
20260503071448 6 298 0.0 0.0 0.00 0.00 0.00 83 1017.3
20260503070948 7 298 0.0 0.0 0.00 0.00 0.00 83 1017.3
20260503070442 7 298 0.0 0.0 0.00 0.00 0.00 83 1017.4
20260503060343 8 298 0.0 1.6 0.00 0.00 0.00 79 1016.8
20260503054824 8 298 0.0 1.6 0.00 0.00 0.00 79 1016.7
20260503054820 8 298 0.0 1.6 0.00 0.00 0.00 79 1016.7
20260503054037 8 298 0.0 0.0 0.00 0.00 0.00 78 1016.8
20260503053304 8 298 0.0 0.0 0.00 0.00 0.00 77 1016.8
20260503052807 8 298 0.0 0.0 0.00 0.00 0.00 77 1016.8